Regional Weather Roundup
Issued by NWS

Home | Current Version | Previous Version | Text Only | Print | Product List | Glossary On
Versions: 1 2 3 4 5 6 7 8 9 10 11 12 13 14 15 16 17 18 19 20 21 22 23 24 25 26 27 28 29 30 31 32 33 34 35 36 37 38 39 40 41 42 43 44 45 46 47 48 49 50
000
ASUS46 KSEW 241410
RWRWA

WASHINGTON REGIONAL WEATHER ROUNDUP
NATIONAL WEATHER SERVICE SEATTLE WA
700 AM PDT TUE MAY 24 2016

NOTE:"FAIR" INDICATES FEW OR NO CLOUDS BELOW 12,000 FEET WITH NO
SIGNIFICANT WEATHER AND/OR OBSTRUCTIONS TO VISIBILITY.

WAZ505-507>509-241500-
SEATTLE, TACOMA, EVERETT, AND VICINITY

CITY           SKY/WX    TMP DP  RH WIND       PRES   REMARKS
EVERETT        CLOUDY    52  48  86 VRB3      29.96S
BOEING FIELD   PTSUNNY   58  50  75 CALM      29.95S
RENTON         CLOUDY    56  50  80 CALM      29.95R
SEATAC AIRPORT PTSUNNY   56  49  77 N5        29.96R
JBLM-MCCHORD   CLOUDY    54  54  99 W7        29.95S
PUYALLUP       CLOUDY    54  54 100 CALM      29.95S
BREMERTON      CLOUDY    54  50  87 CALM      29.98S
JBLM-FT LEWIS  CLOUDY    53  53  99 SW6       29.95S
TACOMA NARROWS CLOUDY    52  50  93 W6        29.96S
$$

WAZ001-503-506-510-514-515-241500-
NORTH INTERIOR

CITY           SKY/WX    TMP DP  RH WIND       PRES   REMARKS
BELLINGHAM     CLOUDY    55  50  83 S7        29.94R
FRIDAY HARBOR  CLOUDY    52  49  89 CALM      29.95R
EASTSOUND      CLOUDY    54  50  87 S5        29.93R
PORT ANGELES   CLOUDY    51  46  83 W8        29.96S
EDIZ HOOK      CLOUDY    52  47  84 W8        29.96S
PORT TOWNSEND  CLOUDY    52  50  93 CALM      29.96S
NAS WHIDBEY    CLOUDY    54  50  86 SW7       29.99R
ARLINGTON      CLOUDY    54  45  71 CALM      29.97S
BURLINGTON     CLOUDY    54  50  87 S5        29.96S
$$

WAZ020-022-039-040-504-511-512-241500-
SOUTHWEST INTERIOR

CITY           SKY/WX    TMP DP  RH WIND       PRES   REMARKS
SHELTON        CLOUDY    50  48  93 W7        29.94S
OLYMPIA        CLOUDY    50  48  93 CALM      29.96S
CHEHALIS       FAIR      52  50  93 CALM      29.97S
KELSO          CLOUDY    54  46  76 N3        30.00S
VANCOUVER      CLOUDY    55  49  80 NW3       29.96R
SCAPPOOSE, OR  CLOUDY    54  48  80 N5        29.96R
PORTLAND, OR   PTSUNNY   56  49  77 NW5       29.96S
$$

WAZ021-516-517-241500-
WASHINGTON COAST

CITY           SKY/WX    TMP DP  RH WIND       PRES   REMARKS
FORKS          CLOUDY    50  48  93 E3        29.97S
HOQUIAM        PTSUNNY   52  51  97 CALM      29.98R FOG
ASTORIA, OR    CLOUDY    54  52  93 CALM      29.97S
$$

WAZ019-023-024-040-518-519-241500-
CASCADE MOUNTAINS AND COLUMBIA GORGE

CITY           SKY/WX    TMP DP  RH WIND       PRES   REMARKS
STAMPEDE PASS  FOG       41  40  96 VRB3      29.92S VSB 1/4
TROUTDALE, OR  CLOUDY    57  49  74 VRB3      29.96R
THE DALLES, OR SUNNY     59  48  67 W10       29.89S
$$

WAZ026-027-041>044-520-521-241500-
EAST SLOPES

CITY           SKY/WX    TMP DP  RH WIND       PRES   REMARKS
OMAK           CLOUDY    53  44  71 VRB3      29.87R
WENATCHEE      CLOUDY    54  41  61 NW6       29.88R
ELLENSBURG     SUNNY     55  41  59 NW15      29.87R
YAKIMA         SUNNY     53  41  63 CALM      29.88R
$$

WAZ028-034-035-241500-
COLUMBIA BASIN

CITY           SKY/WX    TMP DP  RH WIND       PRES   REMARKS
EPHRATA        CLOUDY    54  45  71 N7        29.86R
MOSES LAKE     CLOUDY    53  46  77 N5        29.87R
PASCO          MOSUNNY   55  46  71 S6        29.88S
HERMISTON, OR  MOSUNNY   50  44  80 CALM      29.89R
$$

WAZ036>038-241500-
NORTHEAST WASHINGTON

CITY           SKY/WX    TMP DP  RH WIND       PRES   REMARKS
SPOKANE GEIGER CLOUDY    50  45  83 E5        29.89R
SPOKANE FELTS  CLOUDY    51  47  86 CALM      29.90R
FAIRCHILD AFB  CLOUDY    49  49 100 E7        29.89R
COEURDALENE,ID CLOUDY    48  46  93 CALM      29.88S
DEER PARK      CLOUDY    49  47  93 CALM      29.90R
$$

WAZ029>033-241500-
SOUTHEAST WASHINGTON

CITY           SKY/WX    TMP DP  RH WIND       PRES   REMARKS
PULLMAN        CLOUDY    49  44  83 E3        29.91S
LEWISTON, ID   LGT RAIN  51  47  86 SE5       29.90R
WALLA WALLA    CLOUDY    54  44  69 S5        29.90R
PENDLETON, OR  MOSUNNY   50  42  74 S6        29.90R
$$



USA.gov is the U.S. government's official web portal to all federal, state and local government web resources and services.